Terminal Aerodrome Forecast
Issued by NWS

Home | Current Version | Previous Version | Text Only | Print | Product List | Glossary On
Versions: 1 2 3 4 5 6 7 8 9 10 11 12 13 14 15 16 17 18 19 20 21 22 23 24 25 26
000
FTPA31 PHFO 162300
TAFITO
TAF
PHTO 162329Z 1700/1724 03008KT P6SM SCT030 BKN060
     FM170500 23006KT P6SM VCSH SCT025 BKN040
     FM172000 05010KT P6SM SCT030 BKN060=

USA.gov is the U.S. government's official web portal to all federal, state and local government web resources and services.